Home > Weather > Cairo > Past weeks

Flag for Egypt Past Weather in Cairo, Egypt — Yesterday and Last 2 Weeks

Now
86 °F

Sunny.


Feels Like: 89 °F
Forecast: 75 / 98 °F
Wind: 6 mph from North

Location: Cairo Airport

Current Time: Aug 24, 2016 at 10:47:41 AM

Latest Report: Aug 24, 2016 at 10:00 AM


Visibility: 10 mi

Pressure: 29.83 "Hg

Humidity: 55%

Dew Point: 68 °F

Location of CairoLocation

Past Weather in Cairo — Graph

°F

Cairo Temperature Yesterday

Maximum temperature yesterday: 95 °F (at 3:30 PM)
Minimum temperature yesterday: 79 °F (at 3:00 AM)
Average temperature yesterday: 85 °F

High & Low Weather Summary for the Past Weeks

 TemperatureHumidityPressure
High97 °F (Aug 18, 2:30 PM)94% (Aug 24, 6:00 AM)29.92 "Hg (Aug 24, 6:00 AM)
Low75 °F (Aug 19, 5:00 AM)18% (Aug 19, 1:30 PM)29.71 "Hg (Aug 9, 4:00 PM)
Average85 °F60%29.82 "Hg
* Reported Aug 9 9:00 AM — Aug 24 9:00 AM, Cairo, Weather by CustomWeather, © 2016

Note: Actual official high and low records may vary slightly from our data, if they occured in-between our weather recording intervals... More about our weather records

Advertising

Cairo Weather History for the Previous 24 Hours

Scroll right to see more
 ConditionsComfort  
Time TempWeatherWind HumidityBarometerVisibility
9:00 AM
Wed, Aug 24
82 °FPassing clouds.6 mph70%29.83 "HgN/A
8:30 AM82 °FScattered clouds.6 mph70%29.83 "HgN/A
8:00 AM79 °FPartly sunny.7 mph84%29.83 "HgN/A
7:30 AM79 °FScattered clouds.8 mph84%29.83 "HgN/A
7:00 AM79 °FScattered clouds.6 mph84%29.83 "HgN/A
6:30 AM79 °FScattered clouds.5 mph84%29.83 "HgN/A
6:00 AM77 °FScattered clouds.6 mph94%29.83 "HgN/A
5:30 AM79 °FScattered clouds.7 mph84%29.83 "HgN/A
5:00 AM79 °FPassing clouds.7 mph84%29.83 "HgN/A
4:30 AM79 °FPassing clouds.7 mph84%29.83 "HgN/A
4:00 AM79 °FPassing clouds.9 mph84%29.83 "HgN/A
3:30 AM79 °FPassing clouds.9 mph84%29.83 "HgN/A
3:00 AM79 °FPassing clouds.9 mph84%29.83 "HgN/A
2:30 AM79 °FPassing clouds.9 mph84%29.83 "HgN/A
2:00 AM79 °FClear.9 mph84%29.83 "Hg10 mi
1:30 AM79 °FClear.13 mph84%29.83 "Hg10 mi
1:00 AM81 °FClear.13 mph84%29.83 "Hg10 mi
12:30 AM81 °FClear.13 mph79%29.83 "Hg10 mi
12:00 AM81 °FClear.13 mph84%29.83 "Hg10 mi
11:30 PM
Tue, Aug 23
81 °FClear.13 mph79%29.86 "Hg10 mi
11:00 PM82 °FClear.13 mph74%29.86 "Hg10 mi
10:30 PM82 °FClear.14 mph74%29.86 "Hg10 mi
10:00 PM84 °FClear.14 mph70%29.86 "Hg10 mi
9:30 PM84 °FPassing clouds.14 mph70%29.86 "HgN/A
9:00 PM86 °FPassing clouds.14 mph66%29.86 "HgN/A
8:30 PM86 °FPassing clouds.14 mph66%29.86 "HgN/A
8:00 PM88 °FPassing clouds.14 mph62%29.83 "HgN/A
7:30 PM90 °FPassing clouds.12 mph55%29.83 "HgN/A
7:00 PM90 °FPassing clouds.12 mph55%29.83 "HgN/A
6:00 PM91 °FPassing clouds.12 mph52%29.80 "HgN/A
5:30 PM91 °FPassing clouds.12 mph52%29.80 "HgN/A
5:00 PM93 °FPassing clouds.12 mph49%29.80 "HgN/A
4:30 PM93 °FScattered clouds.14 mph47%29.80 "HgN/A
4:00 PM93 °FScattered clouds.13 mph47%29.80 "HgN/A
3:30 PM95 °FScattered clouds.13 mph44%29.80 "HgN/A
3:00 PM93 °FScattered clouds.12 mph44%29.80 "HgN/A
2:30 PM93 °FScattered clouds.12 mph41%29.80 "HgN/A
2:00 PM93 °FScattered clouds.9 mph44%29.83 "HgN/A
1:30 PM93 °FSunny.10 mph44%29.83 "Hg10 mi
1:00 PM91 °FSunny.9 mph46%29.83 "Hg10 mi
12:00 PM91 °FSunny.7 mph46%29.86 "Hg10 mi
11:00 AM88 °FSunny.3 mph52%29.86 "Hg10 mi
10:30 AM88 °FSunny.9 mph55%29.86 "Hg10 mi
10:00 AM86 °FScattered clouds.7 mph55%29.86 "HgN/A
Weather by CustomWeather, © 2016

See weather overviewHow to use our weather pages